Location: Campo Claro
(10.4907°N, 66.8285°W)
Time: 00:23:22
(UTC+00:00)

Ariane H10-3 - Visible Passes

Search period start: 29 June 2022 00:00
Search period end: 09 July 2022 00:00
Orbit: 466 x 36447 km, 5.0° (Epoch: 28 June)

Date Brightness Start Highest point End Pass type
(mag) Time Alt. Az. Time Alt. Az. Time Alt. Az.
29 Jun 6.7 20:49:37 10° W 01:56:09 80° S 07:05:33 10° ESE visible
30 Jun 5.7 18:20:50 10° WSW 02:38:05 64° ESE 04:31:37 10° ESE visible
01 Jul 8.2 21:03:44 10° E 00:12:00 27° E 01:38:27 10° E visible
03 Jul 5.0 01:00:32 10° W 02:38:40 42° W 11:00:47 10° SE visible
03 Jul 6.1 22:19:00 10° W 23:59:46 80° SW 08:33:11 10° ESE visible
04 Jul 6.9 19:47:44 10° W 02:31:03 78° S 06:03:04 10° ESE visible
05 Jul 5.1 17:19:41 10° WSW 01:38:01 52° ESE 03:25:36 10° ESE visible
06 Jul 8.6 21:51:53 10° E 23:11:39 14° E 00:05:29 10° E visible
07 Jul 9.4 03:03:29 10° W 04:05:28 17° W 05:46:33 10° W visible
07 Jul 5.4 23:52:25 10° W 01:35:23 55° WSW 09:59:45 10° SE visible
